Location: Corcelles
(46.1547°N, 4.7234°E)
Time: 21:00:56
(UTC+00:00)

Cosmos 1743 - Pass Details

Date: 14 July 2020
Orbit: 511 x 526 km, 82.6° (Epoch: 14 August)

Event Time Altitude Azimuth Distance (km) Brightness Sun altitude
Exits shadow 03:02:19 11° 203° (SSW) 1,702 4.7 -9.1°
Maximum altitude 03:05:58 54° 281° (WNW) 632 2.9 -8.7°
Drops below altitude 10° 03:09:46 10° 0° (N) 1,757 6.1 -8.2°
Sets 03:11:57 0° 5° (N) 2,652 7.1 -7.9°
